This is the latest recevied weather packets stored in our database for station/object KC5TIL-3. If no packets are shown the sender has not sent any weather packets the latest 10 day(s).
| Time | Temp. | Humidity | Pressure | Rain* | Wind** | Luminosity | Snow |
|---|---|---|---|---|---|---|---|
| 1787960644 | 37.22° C | 10% | 1011.8 hPa | 0 mm | 2.24 m/s, 174° | - | - |
| 1787960343 | 37.22° C | 10% | 1011.8 hPa | 0 mm | 1.79 m/s, 321° | - | - |
| 1787960040 | 37.22° C | 10% | 1011.8 hPa | 0 mm | 2.24 m/s, 176° | - | - |
| 1787959737 | 37.22° C | 10% | 1011.8 hPa | 0 mm | 2.24 m/s, 106° | - | - |
| 1787959436 | 37.78° C | 10% | 1011.8 hPa | 0 mm | 2.24 m/s, 250° | - | - |
| 1787959137 | 37.78° C | 10% | 1011.8 hPa | 0 mm | 1.79 m/s, 100° | - | - |
| 1787958835 | 37.22° C | 10% | 1011.8 hPa | 0 mm | 2.24 m/s, 97° | - | - |
| 1787958533 | 37.78° C | 10% | 1011.8 hPa | 0 mm | 2.68 m/s, 109° | - | - |
| 1787958235 | 37.22° C | 10% | 1011.8 hPa | 0 mm | 3.13 m/s, 110° | - | - |
| 1787957927 | 37.22° C | 10% | 1011.8 hPa | 0 mm | 3.13 m/s, 113° | - | - |
| 1787957622 | 37.22° C | 10% | 1011.8 hPa | 0 mm | 3.58 m/s, 102° | - | - |
| 1787957319 | 37.78° C | 10% | 1011.8 hPa | 0 mm | 3.58 m/s, 123° | - | - |
| 1787957021 | 37.22° C | 10% | 1011.8 hPa | 0 mm | 4.02 m/s, 106° | - | - |
| 1787956719 | 37.22° C | 10% | 1011.8 hPa | 0 mm | 0 m/s | - | - |
| 1787956421 | 37.78° C | 10% | 1011.8 hPa | 0 mm | 3.58 m/s, 116° | - | - |
| 1787956123 | 38.33° C | 10% | 1011.8 hPa | 0 mm | 0 m/s | - | - |
| 1787955822 | 37.78° C | 10% | 1011.8 hPa | 0 mm | 2.68 m/s, 89° | - | - |
| 1787955523 | 37.78° C | 10% | 1011.8 hPa | 0 mm | 1.79 m/s, 272° | - | - |
| 1787955225 | 37.22° C | 10% | 1011.8 hPa | 0 mm | 4.02 m/s, 105° | - | - |
| 1787954924 | 37.78° C | 10% | 1011.8 hPa | 0 mm | 4.47 m/s, 127° | - | - |
| 1787954626 | 37.78° C | 10% | 1011.8 hPa | 0 mm | 1.79 m/s, 109° | - | - |
| 1787954328 | 37.78° C | 10% | 1011.8 hPa | 0 mm | 0 m/s | - | - |
| 1787954026 | 37.78° C | 10% | 1011.8 hPa | 0 mm | 1.79 m/s, 104° | - | - |
| 1787953728 | 38.33° C | 10% | 1011.8 hPa | 0 mm | 1.79 m/s, 323° | - | - |
| 1787953425 | 37.78° C | 10% | 1011.8 hPa | 0 mm | 1.79 m/s, 309° | - | - |
* Rain latest hour (hover to see other rain measurements)
** Current wind speed in m/s (hover to see current wind gust speed)